Showing default

O3B FM13, 43234

Orbit data source: Space-Track

O3B FM13, 43234 is a payload satellite owned by O3B SES (JE) that was launched on Fri, 09 Mar 2018 UTC via a SOYUZ-ST-B launch vehicle from the French Guiana (FRGUI). Payload-class satellites include a variety of spacecraft equipped with specific instruments for various scientific and technological missions. These include communications satellites like Starlink; space stations such as the ISS; scientific satellites like the Hubble; Earth observation satellites from companies like Planet Labs, Umbra, and HawkEye 360; GPS; miniature CubeSats for education and research; and military/defense satellites.

Loading next visibility...
Identifier
43234, 2018-024D
Orbit
Active
Last TLE update
23 hours ago
Origin
Manufacturer
Thales Alenia
Mission
Operational Commercial Communications
Bus & Motor
PRISMA?, LS-400 AOCS?
Mass
700 kg wet, ~500 kg dry
Launch date (UTC)
2018-03-09 (7 years ago)
Launch vehicle
SOYUZ-ST-B
Launch site
French Guiana (FRGUI)
Object type
Payload
Rocket body
Debris
Shape & HBR
Trap Box + 2 Pan, 12 m
Radar Cross Section
21.980 m², Large (>1 m²)

Expand to show TLE details & history

TLE from 23 hours ago
0 O3B FM13
1 43234U 18024D   25181.43184453 -.00000025  00000-0  00000-0 0  9998
2 43234   0.0239  22.2646 0003174 105.2945 232.4668  5.00115205133462
Epoch: 2025-06-30T10:21Z
TLE epoch observation values (Epoch: 2025-06-30T10:21:51.367Z)
Latitude
-0.01056°
Longitude
-74.20575°
Altitude
8,067.171 km
Speed
5.253 km/s
True Right ascension
00h 00m 00s
True Declination
0° 00' 38"
Sunlit
Object was in daylight at epoch
Visualization orbit readout
Latitude
-0.0278°
Longitude
-150.00125°
Altitude
8,068.575 km
Speed
5.253 km/s
Apparent Right ascension
18h 02m 11s
Apparent Declination
-21° 11' 02"
Sunlit
Object is in full shadow
Visualization observer readout
Local Sidereal Time
20:58:42
Azimuth
222.574° SW
Elevation
16.348°
Doppler factor
1
Orbital elements
Apogee altitude
8,073.54 km
Perigee altitude
8,064.369 km
Semi-major axis
14,447.091 km
Eccentricity
0.00032
Inclination
0.0239°
RAAN
22.2646°
Arg. of periapsis
105.2945°
True anomaly
Unknown
Mean anomaly
232.4668°
Eccentric anomaly
Unknown
Mean motion
1.24989 °/min
Orbital period
288.02 mins
BSTAR
0
Loading maneuver chart data...
Loading SW <> Apogee altitude chart data...
Loading historical data...
Loading historical data...
Loading historical data...
Loading historical data...
Loading historical data...
Loading historical data...
Loading historical data...
Other satellites on launch #24 in the year 2018 (2018-03-09 UTC)

O3B FM13 Visibility forecast

Observer location: undefined°, undefined°

Span
Click to sort rows by Start time (UTC) header in descending order
Start Az.
Max El. time (UTC)
Max El. Az.
Max El.
End time (UTC)
End Az.
70 mins2025-07-01 09:20:25.885Z222.537° SW2025-07-01 09:51:25.885Z179.212° S24.352°2025-07-01 10:30:25.885Z127.878° SE
78 mins2025-07-01 15:12:25.885Z231.158° WSW2025-07-01 15:51:25.885Z179.252° S24.38°2025-07-01 16:30:25.885Z127.838° SE
78 mins2025-07-01 21:12:25.885Z231.175° WSW2025-07-01 21:51:25.885Z179.183° S24.383°2025-07-01 22:30:25.885Z127.807° SE
78 mins2025-07-02 03:12:25.885Z231.11° WSW2025-07-02 03:50:25.885Z180.704° SSW24.356°2025-07-02 04:30:25.885Z127.848° SE
8 mins2025-07-02 09:12:25.885Z231.095° WSW2025-07-02 09:20:25.885Z222.539° SW15.69°2025-07-02 09:20:25.885Z222.539° SW
|